Zurück zum Katalog

COSMOS 2499 DEB

AktivPO
NORAD 55732·DEBRIS·🇷🇺 Russia

Gestartet May 23, 2014 von Plesetsk Cosmodrome

Loading…

Nächste Überflüge (nächste 24 Stunden)

TLE

AlterndSource: Space-Track

Epoche: Sep 9, 2026, 12:05 UTC

1 55732U 14028AU  26252.50369235  .00005021  00000-0  18513-1 0  9994
2 55732  82.3193 182.1920 0118536 146.5466 214.3201 12.90283107107003

Verfolge COSMOS 2499 DEB in Echtzeit mit AllMySat

Download on the App Store